{"data":{"norad_id":62254,"intl_designator":"2024-232T","name":"QIANFAN-53","alt_names":[],"object_type":"PAYLOAD","status":"ACTIVE","operator":null,"country":"PRC","launch_date":"2024-12-05","launch_site_code":"TAISC","launch_vehicle":null,"mission":null,"orbit_class":"UNKNOWN","rcs_meters":null,"size_class":null,"mass_kg":null,"dimensions":null,"purposes":[],"wikipedia_slug":null,"has_3d_model":false,"image_url":null,"decayed_at":null,"tle_current":{"epoch":"2026-05-25T03:59:45.617280Z","epoch_age_seconds":67579,"freshness":"FRESH","line1":"1 62254U 24232T   26145.16650020  .00000101  00000+0  13684-3 0  9996","line2":"2 62254  89.0103  24.7956 0016244  81.1232 279.1757 13.51009536 89973","mean_motion":13.51009536,"eccentricity":0.0016244,"inclination_deg":89.0103,"raan_deg":24.7956,"arg_perigee_deg":81.1232,"mean_anomaly_deg":279.1757,"bstar":0.00013684,"rev_number":8997,"period_min":106.58696046391,"perigee_km":1056.4501510504,"apogee_km":1080.6429365475,"semimajor_km":7446.683543799,"source":"CELESTRAK","updated_at":"2026-05-25T13:38:02.869843Z"}}}